Weather Roundup
Issued by NWS Corpus Christi, TX

Home | Current Version | Previous Version | Text Only | Print | Product List | Glossary On
Versions: 1 2 3 4 5 6 7 8 9 10 11 12 13 14 15 16 17 18 19 20 21 22 23 24 25 26 27 28 29 30 31 32 33 34 35 36 37 38 39 40 41 42 43 44 45 46 47 48 49 50
000
ASUS44 KCRP 231010
HRRCRP

SOUTH TEXAS REGIONAL WEATHER ROUNDUP
NATIONAL WEATHER SERVICE CORPUS CHRISTI TX
500 AM CDT TUE SEP 23 2014


TXZ229>244-231100-
...CORPUS CHRISTI AREA OBSERVATIONS...

CITY           SKY/WX    TMP DP  RH WIND       PRES   REMARKS
CORPUS CHRISTI LGT RAIN  77  74  90 NE6       30.03S
NAS CORPUS CHR CLOUDY    78  32  18 NE13      30.02S
ROCKPORT       MOCLDY    76  73  91 N7        30.03S
KINGSVILLE NAS PTCLDY    72  72 100 N7        30.03S
ALICE          PTCLDY    72  70  93 N6        30.03F
FALFURRIAS     CLEAR    N/A N/A N/A CALM      30.02F
$$

...VICTORIA AREA OBSERVATIONS...

CITY           SKY/WX    TMP DP  RH WIND       PRES   REMARKS
VICTORIA       CLEAR     73  70  90 NE7       30.06S
BEEVILLE       CLOUDY    75  74  99 N3        30.05S
PLEASANTON     MOCLDY    75  69  79 NE3       30.08R
SAN ANTONIO    PTCLDY    74  67  78 NE6       30.10R
$$

...LAREDO AREA OBSERVATIONS...

CITY           SKY/WX    TMP DP  RH WIND       PRES   REMARKS
LAREDO         PTCLDY    74  68  81 CALM      30.07F
COTULLA        PTCLDY    74  68  81 CALM      30.06S
DEL RIO        PTCLDY    77  64  64 E8        30.06S
MCALLEN        CLEAR     72  71  97 N3        30.02R
HEBBRONVILLE     N/A     70  67  92 CALM      30.06S
$$

...OTHER TEXAS OBSERVATIONS...

CITY           SKY/WX    TMP DP  RH WIND       PRES   REMARKS
BROWNSVILLE    CLEAR     73  71  93 NW3       29.99S
HOUSTON        PTCLDY    67  56  67 NE6       30.09S
COL. STATION   CLEAR     66  56  70 NE6       30.11S
AUSTIN         PTCLDY    69  63  81 NE8       30.11S
WACO           CLEAR     62  54  74 CALM      30.14S
FORT WORTH     PTCLDY    65  52  62 E5        30.16R
WICHITA FALLS  CLEAR     59  54  83 SE5       30.16S
LUBBOCK        MOCLDY    62  58  86 E7        30.19S
EL PASO        CLOUDY    69  63  81 N3        30.17F
$$

...MARINE OBSERVATIONS...

STATION/POSITION TIME  SKY/WX   TEMP    WIND        PRES    VSBY  WAVE   SWELL
                                AIR SEA DIR/SP/G                  HT/PER HT/PER
                 (UTC)          (F)     (DEG/KT/KT) (MB)    (MI)  (FT/S) (FT/S)
PORT ARANSAS     1000            77 83  340/  6/  7 1016.9F
BUOY 90 E PORT A 1000            82 84   50/ 17/ 19 1016.0S         4/ 6
BUOY 45 SE BAFFI 1000            83 84   60/  8/ 10 1014.9F         3/ 7   3/ 7
BUOY 200 E PT IS 1000            84 85   60/ 16/ 17 1014.2F         4/ 6
BUOY 15 E GALVES 1000            78 83   50/ 17/ 21 1016.5F         5/ 6
$$


USA.gov is the U.S. government's official web portal to all federal, state and local government web resources and services.